Regional Weather Roundup
Issued by NWS

Home | Current Version | Previous Version | Graphics & Text | Print | Product List | Glossary On
Versions: 1 2 3 4 5 6 7 8 9 10 11 12 13 14 15 16 17 18 19 20 21 22 23 24 25 26 27 28 29 30 31 32 33 34 35 36 37 38 39 40 41 42 43 44 45 46 47 48 49 50
000
ASUS45 KABQ 281301
RWRNM
WEATHER ROUNDUP FOR NEW MEXICO
NATIONAL WEATHER SERVICE ALBUQUERQUE NM
600 AM MST WED JAN 28 2015

NOTE: "FAIR" MEANS FEW OR NO CLOUDS BELOW 12,000 FEET AGL WITH NO
       SIGNIFICANT WEATHER OR OBSTRUCTIONS TO VISION.

      THIS PRODUCT IS RELEASED AS TWO VERSIONS.  ONE VERSION NEAR
      THE TOP OF THE HOUR CONTAINING PRELIMINARY DATA FROM ALBUQUERQUE
      AND OTHER STATIONS.  A FINAL VERSION WITH ADDITIONAL DATA IS
      ISSUED ABOUT 10 MINUTES AFTER THE HOUR.

NMZ501-503-504-510>518-281400-
NORTHWEST PLATEAU/NORTHCENTRAL MOUNTAINS

CITY           SKY/WX    TMP DP  RH WIND       PRES   REMARKS
FARMINGTON     CLEAR     31  27  85 E3        30.26S
SANTA FE       CLOUDY    36  31  82 N9        30.24S WCI  29
TAOS           MOCLDY    28  25  86 N3        30.27F

$$
NMZ402-403-502-505>509-281400-
WESTCENTRAL MOUNTAINS/SOUTHWEST MOUNTAINS

CITY           SKY/WX    TMP DP  RH WIND       PRES   REMARKS
GALLUP         CLOUDY    32  29  88 E3        30.29F
GRANTS         PTCLDY    30  30 100 W6        30.31R WCI  24
SILVER CITY    CLEAR     39  32  75 N9        30.29R WCI  33

$$
NMZ407-409-411-412-281400-
SOUTHERN DESERTS

CITY           SKY/WX    TMP DP  RH WIND       PRES   REMARKS
DEMING         CLEAR     36  33  89 SW5       30.24R WCI  32
HOLLOMAN AFB   MOCLDY    37  33  87 NW6       30.21R WCI  32
ALAMOGORDO     MOCLDY    37  34  87 CALM      30.22R
T OR C         PTCLDY    45  34  65 NW6       30.23R

$$
NMZ519>523-281400-
CENTRAL VALLEYS/CENTRAL HIGHLANDS

CITY           SKY/WX    TMP DP  RH WIND       PRES   REMARKS
ALBUQUERQUE    MOCLDY    37  30  75 S3        30.25S
DOUBLE EAGLE   CLEAR     36  32  87 NW5       30.26R WCI  32
MORIARTY ARPT  FAIR      43  34  70 NW8       30.24S
CLINES CORNERS CLOUDY    39  33  79 NW26      30.17F WCI  28
BELEN          FAIR      34  31  90 CALM      30.26R
SOCORRO        NOT AVBL

$$
NMZ524>526-539-540-281400-
SOUTHCENTRAL MOUNTAINS

CITY           SKY/WX    TMP DP  RH WIND       PRES   REMARKS
RUIDOSO        NOT AVBL

$$
NMZ527>531-281400-
NORTHEAST HIGHLANDS/NORTHEAST PLAINS

CITY           SKY/WX    TMP DP  RH WIND       PRES   REMARKS
LAS VEGAS      CLOUDY    47  25  42 W20G29    30.13F
RATON          CLOUDY    30  26  85 NE7       30.08S WCI  23
CLAYTON        CLOUDY    44  29  55 W7        30.01S

$$
NMZ532>537-281400-
EASTCENTRAL PLAINS

CITY           SKY/WX    TMP DP  RH WIND       PRES   REMARKS
TUCUMCARI      MOCLDY    43  34  70 SW9       30.03F
CANNON AFB     CLEAR     45  36  71 W10       30.11R
CLOVIS AIRPORT CLEAR     48  36  61 W20       30.09F

$$
NMZ028-029-538-281400-
SOUTHEAST PLAINS

CITY           SKY/WX    TMP DP  RH WIND       PRES   REMARKS
ROSWELL        PTCLDY    37  33  85 N5        30.14S WCI  33
ARTESIA        CLEAR     43  41  93 SW8       30.15F
CARLSBAD       CLEAR     38  34  85 CALM      30.14S
HOBBS          CLEAR     45  39  81 SW8       30.15R


$$


USA.gov is the U.S. government's official web portal to all federal, state and local government web resources and services.